Zurück zum Katalog

DELTA 1 DEB

AktivSSO
NORAD 8980·DEBRIS·🇺🇸 United States

Gestartet Jan 22, 1975 von Vandenberg Space Force Base

Loading…

Nächste Überflüge (nächste 24 Stunden)

TLE

AktuellSource: Space-Track

Epoche: Sep 14, 2026, 15:07 UTC

1 08980U 75004BN  26257.63047187  .00000673  00000-0  12339-3 0  9996
2 08980  97.8960 143.2906 0039907  86.9628 273.6143 14.68374360660334

Verfolge DELTA 1 DEB in Echtzeit mit AllMySat

Download on the App Store